Hays, KS

1:48 AM CDT on September 23, 2019 (GMT -0500)
Hays Regional

Weather History for KHYS - August, 2019

Change the Weather History Date:

Monday, August 19, 2019

  Actual Average Record
Temperature  
Mean Temperature 80 °F -  
Max Temperature 93 °F 87 °F 104 °F (2011)
Min Temperature 71 °F 62 °F 51 °F (2012)
Cooling Degree Days 15    
Growing Degree Days 30 (Base 50)    
Moisture  
Dew Point 72 °F    
Average Humidity 91    
Maximum Humidity 100    
Minimum Humidity 49    
Precipitation  
Precipitation 0.00 in - - ()
Sea Level Pressure  
Sea Level Pressure 29.87 in    
Wind  
Wind Speed 8 mph ()    
Max Wind Speed 16 mph    
Max Gust Speed -    
Visibility 6.8 miles    
Events Fog    
Averages and records for this station are not official NWS values.
T = Trace of Precipitation, MM = Missing Value Source: Averaged Metar Reports

Daily Weather History Graph

Daily Weather History Graph

Search for Another Location

Airport or City:

Astronomy

Aug. 19, 2019 Rise Set
Actual Time 6:54 AM CDT 8:26 PM CDT
Civil Twilight 6:26 AM CDT 8:54 PM CDT
Nautical Twilight 5:52 AM CDT 9:28 PM CDT
Astronomical Twilight 5:16 AM CDT 10:04 PM CDT
Moon 10:50 PM CDT (8/19) 10:35 AM CDT (8/19)
Length of Visible Light 14h 28m
Length of Day
13h 32m
Waning Gibbous, 85% of the Moon is Illuminated
Aug 19
Waning Gibbous
Aug 23
Last Quarter
Aug 30
New
Sep 5
First Quarter
Sep 13
Full

Hourly Weather History & Observations

Time (CDT) Temp. Heat Index Dew Point Humidity Pressure Visibility Wind Dir Wind Speed Gust Speed Precip Events Conditions
12:56 AM 72.0 °F - 70.0 °F 93% 29.80 in 10.0 mi ESE 8.1 mph - N/A   Clear
1:56 AM 71.1 °F - 69.1 °F 93% 29.80 in 10.0 mi ESE 5.8 mph - N/A   Clear
2:56 AM 71.1 °F - 70.0 °F 96% 29.79 in 10.0 mi East 6.9 mph - N/A   Clear
3:56 AM 72.0 °F - 70.0 °F 93% 29.79 in 10.0 mi ENE 5.8 mph - N/A   Clear
4:56 AM 71.1 °F - 69.1 °F 93% 29.80 in 10.0 mi ENE 8.1 mph - N/A   Clear
5:56 AM 71.1 °F - 70.0 °F 96% 29.80 in 10.0 mi East 8.1 mph - N/A   Clear
6:39 AM 71.6 °F - 69.8 °F 94% 29.86 in 9.0 mi ENE 9.2 mph - N/A   Scattered Clouds
6:49 AM 71.6 °F - 69.8 °F 94% 29.86 in 8.0 mi ENE 10.4 mph - N/A   Mostly Cloudy
6:56 AM 71.1 °F - 70.0 °F 96% 29.81 in 7.0 mi ENE 10.4 mph - N/A   Mostly Cloudy
7:07 AM 71.6 °F - 69.8 °F 94% 29.86 in 7.0 mi ENE 8.1 mph - N/A   Overcast
7:19 AM 71.6 °F - 69.8 °F 94% 29.87 in 7.0 mi ENE 9.2 mph - N/A   Overcast
7:56 AM 71.1 °F - 71.1 °F 100% 29.83 in 4.0 mi East 8.1 mph - N/A   Overcast
8:08 AM 71.6 °F - 71.6 °F 100% 29.88 in 1.8 mi East 6.9 mph - N/A   Overcast
8:18 AM 71.6 °F - 71.6 °F 100% 29.89 in 0.8 mi East 6.9 mph - N/A   Overcast
8:28 AM 71.6 °F - 71.6 °F 100% 29.89 in 0.5 mi East 9.2 mph - N/A Fog Fog
8:56 AM 73.0 °F - 72.0 °F 96% 29.85 in 0.5 mi East 10.4 mph - N/A Fog Fog
9:26 AM 73.4 °F - 73.4 °F 100% 29.90 in 1.0 mi ESE 8.1 mph - N/A   Overcast
9:41 AM 73.4 °F - 73.4 °F 100% 29.90 in 2.0 mi ESE 11.5 mph - N/A   Overcast
9:49 AM 73.4 °F - 73.4 °F 100% 29.90 in 4.0 mi SE 10.4 mph - N/A   Overcast
9:56 AM 75.0 °F - 73.9 °F 96% 29.86 in 5.0 mi SE 9.2 mph - N/A   Overcast
10:07 AM 75.2 °F - 73.4 °F 94% 29.90 in 7.0 mi SE 10.4 mph - N/A   Overcast
10:28 AM 77.0 °F - 73.4 °F 89% 29.91 in 8.0 mi SSE 10.4 mph - N/A   Overcast
10:56 AM 79.0 °F - 73.9 °F 84% 29.88 in 9.0 mi SE 10.4 mph - N/A   Overcast
11:11 AM 80.6 °F 86.2 °F 75.2 °F 84% 29.94 in 10.0 mi ESE 10.4 mph - N/A   Mostly Cloudy
11:26 AM 82.4 °F 89.5 °F 75.2 °F 79% 29.94 in 10.0 mi SE 10.4 mph - N/A   Partly Cloudy
11:56 AM 84.0 °F 91.9 °F 75.0 °F 74% 29.92 in 10.0 mi SE 9.2 mph - N/A   Clear
12:56 PM 89.1 °F 99.1 °F 75.0 °F 63% 29.96 in 10.0 mi SE 13.8 mph - N/A   Clear
1:56 PM 93.0 °F 100.1 °F 71.1 °F 49% 29.98 in 10.0 mi SSE 16.1 mph - N/A   Clear